Location: Bühlhof
(48.7849°N, 8.6361°E)
Time: 07:27:16
(UTC+00:00)

ACS3 Solar Sail - Visible Passes

Search period start: 08 March 2026 00:00
Search period end: 18 March 2026 00:00
Orbit: 888 x 973 km, 97.2° (Epoch: 7 March)

Date Brightness Start Highest point End Pass type
(mag) Time Alt. Az. Time Alt. Az. Time Alt. Az.
8 Mar 4.2 00:12:34 10° NNE 00:13:20 13° NE 00:13:20 13° NE visible
8 Mar 3.3 01:54:39 10° N 01:57:02 25° N 01:57:02 25° N visible
8 Mar 3.8 03:40:05 10° NW 03:40:44 11° NW 03:40:44 11° NW visible
9 Mar 4.1 00:23:52 10° NNE 00:25:07 16° NE 00:25:07 16° NE visible
9 Mar 3.3 02:06:17 10° N 02:08:48 25° NNW 02:08:48 25° NNW visible
10 Mar 3.9 00:35:12 10° NNE 00:36:51 19° NE 00:36:51 19° NE visible
10 Mar 3.2 02:17:54 10° N 02:20:33 25° NNW 02:20:33 25° NNW visible
11 Mar 3.7 00:46:31 10° NNE 00:48:32 22° NNE 00:48:32 22° NNE visible
11 Mar 3.2 02:29:30 10° N 02:32:14 23° NNW 02:32:14 23° NNW visible
12 Mar 3.5 00:57:50 10° NNE 01:00:11 25° NNE 01:00:11 25° NNE visible
12 Mar 3.3 02:41:06 10° N 02:43:52 22° NNW 02:43:52 22° NNW visible
13 Mar 3.3 01:09:10 10° NNE 01:11:47 28° NNE 01:11:47 28° NNE visible
13 Mar 3.3 02:52:42 10° NNW 02:55:28 19° NW 02:55:28 19° NW visible
13 Mar 4.3 23:39:27 10° NE 23:39:39 11° NE 23:39:39 11° NE visible
14 Mar 3.2 01:20:28 10° NNE 01:23:20 31° NNE 01:23:20 31° NNE visible
14 Mar 3.4 03:04:21 10° NNW 03:07:01 17° NW 03:07:01 17° NW visible
14 Mar 4.2 23:50:13 10° NE 23:51:10 13° NE 23:51:10 13° NE visible
15 Mar 3.0 01:31:44 10° N 01:34:50 33° N 01:34:50 33° N visible
15 Mar 3.5 03:16:02 10° NNW 03:18:31 15° NW 03:18:31 15° NW visible
16 Mar 4.0 00:01:04 10° NE 00:02:36 16° NE 00:02:36 16° NE visible
16 Mar 2.9 01:43:01 10° N 01:46:18 34° N 01:46:18 34° N visible
16 Mar 3.6 03:27:55 10° NNW 03:29:58 12° NW 03:29:58 12° NW visible
17 Mar 3.8 00:11:59 10° NNE 00:14:02 20° NE 00:14:02 20° NE visible
17 Mar 2.8 01:54:14 10° N 01:57:42 34° NNW 01:57:42 34° NNW visible
